Location: Kuffner-Sternwarte
(48.2130°N, 16.2960°E)
Time: 08:57:36
(UTC+01:00)

XW-2C - Pass Details

Date: 06 November 2024
Orbit: 359 x 368 km, 97.5° (Epoch: 04 December)

Event Time Altitude Azimuth Distance (km) Brightness Sun altitude
Exits shadow 17:38:07 16° 44° (NE) 1,136 ? -12.0°
Drops below altitude 10° 17:39:22 10° 22° (NNE) 1,437 ? -12.2°
Sets 17:41:43 0° 2° (N) 2,287 ? -12.6°
